Погода в Балахонках

Россия / Ивановская область     57°05′24″N   40°45′58″E
темп.,
°C
ветер,
м/с
пор.,
м/с
влажн.,
%
обл.,
%
осадки,
мм/ч
давл.,
гПа
погр.,
м
7 мая, пт
пт700:00+10зюз4985100 0.2 1006848
03:00+6ююз279497 0.2 1007242
06:00+7юз3888100 0.0 1008499
09:00+9зюз4566100 0.0 1009962
12:00+11зюз474993 0.0 10101889
15:00+12з584771 0.0 10111861
18:00+12зюз36423 0.0 10111939
21:00+7ююз23625 0.0 101343
8 мая, сб
сб800:00+5ю3671100 0.0 1014114
03:00+5ююв3874100 0.0 1014152
06:00+7ююв41264100 0.0 1013382
09:00+12ююв61251100 0.0 10121289
12:00+12юв51252100 0.0 10101973
15:00+9ююв61381100 1.1 10091342
18:00+8юв61591100 4.5 10061393
21:00+8юв61393100 9.2 1004936
9 мая, вс
вс900:00+9ююв3998100 2.5 1002593
03:00+9ююв2798100 2.8 1002378
06:00+7сз5896100 0.9 1004513
09:00+4сз61295100 1.6 1007597
12:00+4сз51297100 1.3 1012728
15:00+7сз61079100 1.4 10141230
18:00+8ссз5106913 0.0 10171287
21:00+4зсз38815 0.0 1020146
10 мая, пн
пн1000:00+3зсз25810 0.0 102378
03:00+2сз36850 0.0 102597
06:00+4сз25775 0.0 1027136
09:00+10ссз24455 0.0 1029815
12:00+13сз23395 0.0 10291585
15:00+15зсз33375 0.0 10291911
18:00+14зюз235282 0.0 1029665
21:00+10ююз2262100 0.0 103012
11 мая, вт
вт1100:00+8ююз227230 0.0 103111
03:00+6юз12785 0.0 103211
06:00+8юз1273100 0.0 103263
09:00+15ююз225337 0.0 1032499
12:00+18ю224675 0.0 10321191
15:00+20ю114448 0.0 10311394
18:00+19вюв125898 0.0 103090
21:00+12юв2275100 0.0 103121